�������l�o���
Date,Time,MP-1(��Sv/h),MP-2(��Sv/h),MP-3(��Sv/h),MP-4(��Sv/h),MP-5(��Sv/h),MP-6(��Sv/h),MP-7(��Sv/h),MP-8(��Sv/h),����,����(m/s),���J
2017/01/04,00:00,1.106,1.841,1.203,2.099,1.444,0.570,1.038,0.962,��,0.9,��
2017/01/04,00:10,1.107,1.837,1.204,2.101,1.446,0.569,1.039,0.963,�쐼,1.4,��
2017/01/04,00:20,1.107,1.840,1.202,2.102,1.446,0.570,1.039,0.963,��쐼,2.3,��
2017/01/04,00:30,1.106,1.843,1.204,2.102,1.444,0.570,1.038,0.963,�쐼,1.5,��
2017/01/04,00:40,1.106,1.839,1.204,2.099,1.445,0.570,1.039,0.963,��쐼,1.9,��
2017/01/04,00:50,1.105,1.841,1.202,2.101,1.446,0.569,1.038,0.964,�쐼,1.7,��
2017/01/04,01:00,1.106,1.838,1.202,2.102,1.443,0.570,1.040,0.965,���쐼,2.3,��
2017/01/04,01:10,1.106,1.839,1.203,2.101,1.446,0.570,1.035,0.962,���쐼,2.3,��
2017/01/04,01:20,1.104,1.841,1.204,2.101,1.445,0.569,1.038,0.962,���쐼,3.0,��
2017/01/04,01:30,1.104,1.840,1.202,2.100,1.443,0.569,1.038,0.964,���쐼,2.6,��
2017/01/04,01:40,1.104,1.837,1.202,2.100,1.443,0.569,1.039,0.963,���쐼,2.9,��
2017/01/04,01:50,1.103,1.838,1.202,2.100,1.446,0.567,1.040,0.963,�쐼,3.4,��
2017/01/04,02:00,1.103,1.840,1.202,2.098,1.447,0.572,1.038,0.963,�쐼,3.3,��
2017/01/04,02:10,1.103,1.841,1.201,2.098,1.443,0.568,1.039,0.962,�쐼,2.3,��
2017/01/04,02:20,1.105,1.841,1.203,2.102,1.445,0.569,1.037,0.964,�k��,2.0,��
2017/01/04,02:30,1.104,1.839,1.203,2.100,1.442,0.569,1.039,0.963,���k��,1.7,��
2017/01/04,02:40,1.103,1.837,1.203,2.100,1.446,0.570,1.037,0.962,���k��,2.5,��
2017/01/04,02:50,1.107,1.838,1.202,2.097,1.445,0.569,1.039,0.962,���쐼,3.3,��
2017/01/04,03:00,1.107,1.843,1.202,2.100,1.444,0.570,1.039,0.964,���쐼,4.5,��
2017/01/04,03:10,1.106,1.841,1.203,2.099,1.443,0.569,1.039,0.962,��,5.0,��
2017/01/04,03:20,1.105,1.840,1.203,2.103,1.445,0.570,1.039,0.965,��,4.0,��
2017/01/04,03:30,1.106,1.837,1.202,2.102,1.444,0.571,1.039,0.965,��,3.1,��
2017/01/04,03:40,1.107,1.840,1.203,2.100,1.444,0.568,1.039,0.964,���쐼,3.2,��
2017/01/04,03:50,1.107,1.841,1.203,2.101,1.444,0.569,1.039,0.963,���쐼,2.5,��
2017/01/04,04:00,1.106,1.838,1.201,2.104,1.444,0.570,1.038,0.965,�쐼,2.5,��
2017/01/04,04:10,1.106,1.842,1.203,2.100,1.445,0.570,1.042,0.964,�쐼,1.2,��
2017/01/04,04:20,1.106,1.840,1.201,2.101,1.442,0.570,1.039,0.964,��,2.0,��
2017/01/04,04:30,1.105,1.839,1.203,2.103,1.445,0.570,1.038,0.964,��쐼,2.6,��
2017/01/04,04:40,1.109,1.842,1.203,2.101,1.445,0.570,1.039,0.965,��쐼,4.4,��
2017/01/04,04:50,1.107,1.836,1.202,2.101,1.445,0.570,1.039,0.963,��쐼,3.8,��
2017/01/04,05:00,1.105,1.838,1.203,2.103,1.443,0.570,1.040,0.964,��쐼,3.5,��
2017/01/04,05:10,1.105,1.839,1.204,2.101,1.442,0.569,1.041,0.962,�쐼,4.1,��
2017/01/04,05:20,1.107,1.840,1.203,2.100,1.446,0.571,1.040,0.964,��쐼,4.7,��
2017/01/04,05:30,1.107,1.838,1.204,2.102,1.445,0.570,1.041,0.963,��쐼,4.9,��
2017/01/04,05:40,1.106,1.839,1.204,2.102,1.444,0.570,1.039,0.962,��쐼,4.2,��
2017/01/04,05:50,1.106,1.843,1.206,2.102,1.444,0.570,1.039,0.964,�쐼,4.4,��
2017/01/04,06:00,1.105,1.838,1.200,2.105,1.446,0.570,1.041,0.965,�쐼,5.0,��
2017/01/04,06:10,1.104,1.837,1.203,2.104,1.445,0.569,1.038,0.962,�쐼,4.5,��
2017/01/04,06:20,1.109,1.839,1.206,2.102,1.446,0.570,1.040,0.965,�쐼,4.2,��
2017/01/04,06:30,1.108,1.842,1.207,2.101,1.442,0.571,1.040,0.965,�쐼,2.9,��
2017/01/04,06:40,1.107,1.838,1.203,2.100,1.446,0.568,1.040,0.966,�쐼,2.6,��
2017/01/04,06:50,1.107,1.839,1.203,2.104,1.445,0.571,1.041,0.964,���쐼,2.6,��
2017/01/04,07:00,1.105,1.837,1.205,2.102,1.446,0.569,1.040,0.962,��,2.3,��
2017/01/04,07:10,1.106,1.840,1.202,2.103,1.444,0.570,1.038,0.966,��,2.3,��
2017/01/04,07:20,1.108,1.841,1.204,2.103,1.442,0.571,1.041,0.963,��,2.6,��
2017/01/04,07:30,1.108,1.841,1.204,2.105,1.445,0.570,1.040,0.966,��,2.6,��
2017/01/04,07:40,1.106,1.837,1.204,2.103,1.449,0.570,1.040,0.963,���쐼,3.4,��
2017/01/04,07:50,1.108,1.842,1.203,2.103,1.447,0.570,1.041,0.964,���쐼,4.6,��
2017/01/04,08:00,1.108,1.839,1.206,2.101,1.446,0.570,1.041,0.965,���쐼,5.8,��
2017/01/04,08:10,1.107,1.843,1.205,2.106,1.446,0.570,1.043,0.965,���쐼,6.0,��
2017/01/04,08:20,1.107,1.839,1.206,2.105,1.448,0.572,1.043,0.964,���쐼,5.5,�L
2017/01/04,08:30,1.109,1.844,1.206,2.106,1.446,0.570,1.042,0.966,���쐼,4.9,�L
2017/01/04,08:40,1.107,1.843,1.206,2.104,1.445,0.573,1.041,0.965,���쐼,3.8,��
2017/01/04,08:50,1.109,1.841,1.206,2.105,1.446,0.570,1.041,0.963,��,2.6,��
2017/01/04,09:00,1.108,1.842,1.207,2.105,1.447,0.572,1.042,0.963,���k��,2.9,��
2017/01/04,09:10,1.109,1.845,1.207,2.107,1.448,0.572,1.041,0.966,���k��,2.7,��
2017/01/04,09:20,1.108,1.842,1.206,2.107,1.447,0.574,1.042,0.966,���k��,3.6,��
2017/01/04,09:30,1.109,1.842,1.205,2.104,1.446,0.572,1.043,0.966,��,3.9,��
2017/01/04,09:40,1.110,1.843,1.205,2.102,1.449,0.573,1.042,0.965,��,4.5,��
2017/01/04,09:50,1.109,1.844,1.205,2.106,1.448,0.572,1.041,0.965,��,4.2,�L
2017/01/04,10:00,1.109,1.846,1.207,2.108,1.450,0.572,1.041,0.964,���쐼,5.1,��
2017/01/04,10:10,1.108,1.843,1.208,2.106,1.447,0.572,1.042,0.967,���쐼,6.0,��
2017/01/04,10:20,1.110,1.845,1.209,2.105,1.450,0.573,1.044,0.966,���쐼,4.7,��
2017/01/04,10:30,1.111,1.845,1.210,2.108,1.447,0.572,1.045,0.966,�쐼,4.4,��
2017/01/04,10:40,1.112,1.848,1.208,2.110,1.449,0.574,1.042,0.967,�쐼,4.9,�L
2017/01/04,10:50,1.112,1.845,1.211,2.109,1.449,0.574,1.042,0.966,���쐼,4.1,��
2017/01/04,11:00,1.115,1.846,1.210,2.108,1.448,0.573,1.043,0.968,���쐼,3.6,��
2017/01/04,11:10,1.113,1.845,1.209,2.111,1.451,0.573,1.042,0.968,���쐼,2.5,��
2017/01/04,11:20,1.112,1.845,1.210,2.109,1.452,0.573,1.043,0.965,���k��,2.3,��
2017/01/04,11:30,1.113,1.847,1.208,2.108,1.452,0.573,1.040,0.967,���쐼,1.7,��
2017/01/04,11:40,1.113,1.844,1.210,2.111,1.453,0.575,1.043,0.967,�쐼,4.4,��
2017/01/04,11:50,1.113,1.845,1.205,2.109,1.450,0.572,1.043,0.965,��쐼,7.2,��
2017/01/04,12:00,1.113,1.849,1.211,2.109,1.452,0.573,1.042,0.965,��쐼,5.0,��
2017/01/04,12:10,1.113,1.849,1.209,2.108,1.451,0.571,1.044,0.966,�쐼,3.9,��
2017/01/04,12:20,1.114,1.848,1.209,2.107,1.450,0.572,1.041,0.964,��,3.3,��
2017/01/04,12:30,1.115,1.847,1.210,2.111,1.450,0.572,1.043,0.967,�k��,6.1,��
2017/01/04,12:40,1.112,1.849,1.210,2.110,1.451,0.573,1.042,0.966,�k�k��,7.8,��
2017/01/04,12:50,1.110,1.843,1.208,2.110,1.453,0.572,1.042,0.965,�k,9.2,��
2017/01/04,13:00,1.109,1.845,1.208,2.108,1.452,0.571,1.041,0.967,�k,9.3,��
2017/01/04,13:10,1.111,1.844,1.208,2.109,1.449,0.571,1.039,0.967,�k,9.1,��
2017/01/04,13:20,1.109,1.843,1.209,2.108,1.451,0.572,1.039,0.967,�k,7.9,��
2017/01/04,13:30,1.109,1.842,1.208,2.103,1.451,0.571,1.040,0.966,�k,7.2,�L
2017/01/04,13:40,1.110,1.838,1.207,2.106,1.449,0.573,1.040,0.964,�k�k��,9.0,�L
2017/01/04,13:50,1.112,1.839,1.205,2.104,1.448,0.574,1.038,0.965,�k�k��,9.6,�L
2017/01/04,14:00,1.109,1.836,1.207,2.102,1.447,0.576,1.040,0.966,�k��,9.2,�L
2017/01/04,14:10,1.110,1.833,1.204,2.101,1.445,0.573,1.041,0.966,�k��,6.0,��
2017/01/04,14:20,1.109,1.835,1.204,2.101,1.442,0.574,1.042,0.964,���k��,4.1,��
2017/01/04,14:30,1.111,1.836,1.205,2.105,1.443,0.574,1.040,0.966,��,2.2,��
2017/01/04,14:40,1.113,1.837,1.205,2.103,1.443,0.575,1.042,0.966,���k��,2.0,��
2017/01/04,14:50,1.110,1.838,1.205,2.102,1.444,0.574,1.042,0.964,�k��,2.3,��
2017/01/04,15:00,1.110,1.833,1.205,2.102,1.442,0.573,1.040,0.965,�k�k��,3.1,��
2017/01/04,15:10,1.110,1.835,1.201,2.102,1.440,0.573,1.040,0.963,�k�k��,4.6,��
2017/01/04,15:20,1.109,1.834,1.204,2.102,1.443,0.572,1.042,0.966,�k�k��,3.8,��
2017/01/04,15:30,1.109,1.833,1.205,2.100,1.440,0.570,1.042,0.964,�k�k��,3.7,��
2017/01/04,15:40,1.104,1.832,1.203,2.098,1.440,0.572,1.040,0.963,�k,3.5,��
2017/01/04,15:50,1.108,1.834,1.200,2.097,1.441,0.571,1.042,0.962,�k��,4.2,��
2017/01/04,16:00,1.107,1.835,1.202,2.097,1.441,0.573,1.040,0.962,�k��,4.5,��
2017/01/04,16:10,1.106,1.831,1.204,2.097,1.442,0.571,1.041,0.964,�k��,4.1,�L
2017/01/04,16:20,1.106,1.831,1.200,2.100,1.440,0.571,1.038,0.961,�k�k��,3.8,�L
2017/01/04,16:30,1.105,1.833,1.201,2.098,1.437,0.573,1.039,0.963,�k�k��,3.9,��
2017/01/04,16:40,1.106,1.832,1.201,2.096,1.440,0.570,1.040,0.964,�k�k��,2.8,��
2017/01/04,16:50,1.105,1.834,1.203,2.098,1.440,0.570,1.043,0.964,�k,3.2,��
2017/01/04,17:00,1.104,1.833,1.201,2.094,1.442,0.569,1.041,0.962,�k,3.6,��
2017/01/04,17:10,1.105,1.835,1.201,2.092,1.438,0.571,1.040,0.964,�k,3.3,��
2017/01/04,17:20,1.104,1.829,1.200,2.094,1.436,0.570,1.038,0.961,�k,3.1,��
2017/01/04,17:30,1.103,1.829,1.201,2.095,1.436,0.569,1.040,0.965,�k�k��,4.4,��
2017/01/04,17:40,1.103,1.828,1.203,2.091,1.435,0.569,1.039,0.963,�k,5.3,��
2017/01/04,17:50,1.104,1.831,1.199,2.093,1.437,0.568,1.040,0.962,�k,4.8,��
2017/01/04,18:00,1.106,1.829,1.200,2.096,1.437,0.568,1.039,0.964,�k,4.8,��
2017/01/04,18:10,1.104,1.830,1.200,2.096,1.436,0.568,1.039,0.962,�k,3.9,��
2017/01/04,18:20,1.104,1.829,1.197,2.092,1.437,0.568,1.038,0.963,�k�k��,2.6,��
2017/01/04,18:30,1.103,1.829,1.199,2.090,1.437,0.569,1.038,0.963,�k�k��,1.2,��
2017/01/04,18:40,1.103,1.831,1.197,2.094,1.436,0.568,1.036,0.963,�k�k��,1.7,��
2017/01/04,18:50,1.102,1.830,1.198,2.091,1.439,0.569,1.036,0.961,�k�k��,1.7,��
2017/01/04,19:00,1.103,1.829,1.196,2.091,1.436,0.569,1.036,0.962,�k�k��,1.1,��
2017/01/04,19:10,1.104,1.829,1.198,2.093,1.437,0.568,1.038,0.961,���k��,1.7,��
2017/01/04,19:20,1.103,1.830,1.199,2.091,1.434,0.568,1.038,0.960,�k��,1.2,��
2017/01/04,19:30,1.101,1.829,1.195,2.093,1.437,0.569,1.037,0.962,���k��,0.6,��
2017/01/04,19:40,1.101,1.825,1.197,2.091,1.435,0.568,1.036,0.960,��,1.5,��
2017/01/04,19:50,1.103,1.832,1.199,2.091,1.435,0.569,1.037,0.963,���k��,1.7,��
2017/01/04,20:00,1.103,1.827,1.197,2.091,1.435,0.567,1.037,0.960,��,1.5,��
2017/01/04,20:10,1.101,1.832,1.196,2.093,1.437,0.567,1.037,0.962,�쐼,0.8,��
2017/01/04,20:20,1.102,1.829,1.194,2.094,1.437,0.568,1.037,0.960,�k��,0.9,��
2017/01/04,20:30,1.101,1.826,1.196,2.091,1.432,0.569,1.039,0.961,�k,1.4,��
2017/01/04,20:40,1.102,1.829,1.198,2.094,1.435,0.567,1.037,0.961,�k�k��,2.6,��
2017/01/04,20:50,1.102,1.829,1.197,2.096,1.435,0.568,1.036,0.961,�k��,2.6,��
2017/01/04,21:00,1.100,1.828,1.196,2.091,1.434,0.567,1.037,0.962,�k��,1.9,��
2017/01/04,21:10,1.102,1.825,1.196,2.091,1.433,0.568,1.038,0.961,���k��,0.9,��
2017/01/04,21:20,1.102,1.826,1.197,2.091,1.436,0.568,1.037,0.959,��쓌,1.2,��
2017/01/04,21:30,1.101,1.827,1.197,2.092,1.434,0.567,1.037,0.961,��쐼,2.0,��
2017/01/04,21:40,1.102,1.828,1.198,2.090,1.432,0.568,1.037,0.963,���k��,0.9,��
2017/01/04,21:50,1.100,1.826,1.199,2.091,1.435,0.568,1.038,0.964,�쐼,1.7,��
2017/01/04,22:00,1.101,1.828,1.196,2.092,1.433,0.570,1.036,0.962,�k��,1.1,��
2017/01/04,22:10,1.104,1.831,1.198,2.093,1.434,0.569,1.038,0.962,��,1.5,��
2017/01/04,22:20,1.101,1.830,1.198,2.095,1.434,0.569,1.038,0.961,���k��,2.0,��
2017/01/04,22:30,1.100,1.827,1.198,2.095,1.437,0.569,1.039,0.962,��,2.0,��
2017/01/04,22:40,1.101,1.831,1.198,2.096,1.435,0.570,1.039,0.961,���k��,2.0,��
2017/01/04,22:50,1.101,1.829,1.198,2.097,1.436,0.569,1.038,0.960,�k�k��,2.8,��
2017/01/04,23:00,1.101,1.830,1.198,2.091,1.438,0.568,1.037,0.965,�k,2.0,��
2017/01/04,23:10,1.101,1.830,1.198,2.095,1.436,0.569,1.038,0.962,�k�k��,2.5,��
2017/01/04,23:20,1.102,1.829,1.197,2.093,1.437,0.568,1.038,0.961,�k�k��,3.1,��
2017/01/04,23:30,1.102,1.830,1.198,2.095,1.436,0.569,1.038,0.962,�k��,2.6,��
2017/01/04,23:40,1.101,1.828,1.197,2.094,1.437,0.568,1.038,0.961,�k��,2.5,��
2017/01/04,23:50,1.101,1.830,1.198,2.095,1.436,0.568,1.040,0.963,�k��,2.5,��
